Location: Kershaw
(34.5481°N, 80.5823°W)
Time: 10:08:10
(UTC+00:00)

Altair - Pass Details

Date: 06 October 2022
Orbit: 1501 x 1682 km, 47.2° (Epoch: 30 November)

Event Time Altitude Azimuth Distance (km) Brightness Sun altitude
Rises 09:06:52 0° 236° (SW) 4,704 - -28.2°
Reaches altitude 10° 09:09:52 10° 237° (WSW) 3,745 - -27.6°
Exits shadow 09:15:46 45° 244° (WSW) 2,073 7.7 -26.4°
Maximum altitude 09:19:27 82° 325° (NW) 1,624 7.5 -25.7°
Drops below altitude 10° 09:29:27 10° 54° (NE) 3,898 10.5 -23.7°
Sets 09:32:39 0° 55° (NE) 4,904 11.2 -23.0°
